EW5612 Weather Reports


time (UTC)temp
C
wind
direction
speed
KPH
gust
KPH
rain 1hr
cm
rain 24hr
cm
rain mn
cm
humidity
%
barometer
mb
20260506215204 21 16 6.4 19.3 0.00 0.00 0.00 77 1009.9
20260506214704 21 303 4.8 16.1 0.00 0.00 0.00 76 1009.9
20260506214203 21 26 4.8 19.3 0.00 0.00 0.00 76 1009.7
20260506213204 21 335 3.2 16.1 0.00 0.00 0.00 78 1009.6
20260506212204 21 325 6.4 16.1 0.00 0.00 0.00 77 1009.9
20260506211703 21 347 8.0 16.1 0.00 0.00 0.00 77 1010.1
20260506211204 21 283 6.4 19.3 0.00 0.00 0.00 77 1010.1
20260506210704 22 333 8.0 16.1 0.00 0.00 0.00 76 1010.1
20260506210203 22 336 8.0 19.3 0.00 0.00 0.00 75 1010.1
20260506205703 22 333 6.4 14.5 0.00 0.00 0.00 76 1010.1
20260506205203 22 340 8.0 16.1 0.00 0.00 0.00 76 1009.9
20260506204203 23 65 4.8 14.5 0.00 0.00 0.00 76 1010.0
20260506203703 23 311 4.8 16.1 0.00 0.00 0.00 77 1009.9
20260506203204 23 302 1.6 19.3 0.00 0.00 0.00 77 1009.7
20260506202704 23 336 3.2 19.3 0.00 0.00 0.00 77 1009.7
20260506202204 24 30 1.6 8.0 0.00 0.00 0.00 78 1009.6
20260506201703 24 319 1.6 19.3 0.00 0.00 0.00 77 1009.5
20260506201204 25 344 3.2 12.9 0.00 0.00 0.00 77 1009.4
20260506200704 25 315 1.6 19.3 0.00 0.00 0.00 78 1009.4
20260506200204 25 301 1.6 12.9 0.00 0.00 0.00 77 1009.3
20260506195703 25 352 3.2 11.3 0.00 0.00 0.00 77 1009.3
20260506195204 25 268 0.0 9.7 0.00 0.00 0.00 78 1009.4
20260506194704 25 329 0.0 0.0 0.00 0.00 0.00 77 1009.6
20260506194203 25 302 1.6 4.8 0.00 0.00 0.00 77 1009.4
20260506193703 25 313 0.0 0.0 0.00 0.00 0.00 76 1009.5
20260506193204 25 296 0.0 3.2 0.00 0.00 0.00 78 1009.6
20260506192704 25 19 0.0 0.0 0.00 0.00 0.00 79 1009.5
20260506191704 25 314 0.0 0.0 0.00 0.00 0.00 78 1009.4
20260506191204 25 284 0.0 0.0 0.00 0.00 0.00 78 1009.4
20260506185703 23 330 0.0 0.0 0.00 0.00 0.00 80 1009.7
20260506184204 23 327 0.0 0.0 0.00 0.00 0.00 82 1009.6
20260506183704 22 352 1.6 4.8 0.00 0.00 0.00 83 1009.6
20260506183204 22 5 0.0 0.0 0.00 0.00 0.00 81 1009.6
20260506182704 22 308 0.0 8.0 0.00 0.00 0.00 83 1009.6
20260506182204 22 339 1.6 8.0 0.00 0.00 0.00 84 1009.7
20260506181704 21 322 0.0 0.0 0.00 0.00 0.00 86 1009.7
20260506181204 21 325 0.0 4.8 0.00 0.00 0.00 86 1009.8
20260506180703 21 22 1.6 8.0 0.00 0.00 0.00 86 1009.7
20260506180203 20 331 0.0 0.0 0.00 0.00 0.00 87 1009.8
20260506175204 20 4 0.0 0.0 0.00 0.00 0.00 88 1009.9
20260506174703 19 311 0.0 0.0 0.00 0.00 0.00 88 1009.9
20260506174204 19 17 0.0 0.0 0.00 0.00 0.00 88 1010.0
20260506173704 18 348 0.0 0.0 0.00 0.00 0.00 89 1010.0
20260506172703 18 315 0.0 0.0 0.00 0.00 0.00 88 1010.4
20260506171703 18 318 0.0 4.8 0.00 0.00 0.00 88 1010.7
20260506171203 18 281 1.6 11.3 0.00 0.00 0.00 88 1010.9
20260506170704 18 45 1.6 12.9 0.00 0.00 0.00 88 1011.1
20260506170204 18 4 1.6 16.1 0.00 0.00 0.00 87 1011.0
20260506165704 18 317 1.6 16.1 0.00 0.00 0.00 87 1011.0
20260506164704 20 352 3.2 19.3 0.00 0.00 0.00 86 1011.0
20260506163704 21 320 6.4 19.3 0.00 0.00 0.00 82 1011.0
20260506162704 23 302 6.4 16.1 0.00 0.00 0.00 80 1011.1
20260506162204 25 328 0.0 3.2 0.00 0.00 0.00 91 1010.8
20260506161704 25 0 0.0 0.0 0.00 0.00 0.00 91 1010.6
20260506161204 25 55 0.0 0.0 0.00 0.00 0.00 91 1010.6
20260506160203 25 60 0.0 0.0 0.00 0.00 0.00 92 1010.8
20260506155704 25 86 0.0 0.0 0.00 0.00 0.00 92 1010.6
20260506155204 25 91 0.0 0.0 0.00 0.00 0.00 92 1010.3
20260506154703 25 100 0.0 0.0 0.00 0.00 0.00 92 1010.2
20260506154203 25 100 0.0 0.0 0.00 0.00 0.00 92 1010.2
20260506153703 25 99 0.0 0.0 0.00 0.00 0.00 92 1009.9
20260506153204 25 106 0.0 0.0 0.00 0.00 0.00 92 1009.6
20260506152203 24 106 0.0 0.0 0.00 0.00 0.00 92 1009.6
20260506151704 24 106 0.0 0.0 0.00 0.00 0.00 92 1009.6
20260506151204 24 106 0.0 0.0 0.00 0.00 0.00 92 1009.3
20260506150704 24 106 0.0 0.0 0.00 0.00 0.00 92 1009.1
20260506150203 24 106 0.0 0.0 0.00 0.00 0.00 92 1009.1
20260506145203 24 106 0.0 0.0 0.00 0.00 0.00 93 1008.9
20260506144703 24 106 0.0 0.0 0.00 0.00 0.00 93 1008.9
20260506144204 24 106 0.0 0.0 0.00 0.00 0.00 93 1009.0
20260506143204 24 106 0.0 0.0 0.00 0.00 0.00 93 1009.1
20260506142704 24 106 0.0 0.0 0.00 0.00 0.00 93 1009.1
20260506141703 24 106 0.0 0.0 0.00 0.00 0.00 93 1009.2
20260506141203 24 106 0.0 0.0 0.00 0.00 0.00 93 1009.0
20260506135703 23 106 0.0 0.0 0.00 0.00 0.00 93 1008.3
20260506135203 23 106 0.0 0.0 0.00 0.00 0.00 93 1008.2
20260506134703 23 106 0.0 0.0 0.00 0.00 0.00 93 1008.1
20260506133703 23 189 0.0 0.0 0.00 0.00 0.00 93 1008.1
20260506133204 23 189 0.0 0.0 0.00 0.00 0.00 94 1008.1
20260506132203 23 189 0.0 0.0 0.00 0.00 0.00 93 1008.1
20260506130204 23 189 0.0 0.0 0.00 0.00 0.00 93 1008.1
20260506125704 23 189 0.0 0.0 0.00 0.00 0.00 93 1008.1
20260506124704 23 189 0.0 0.0 0.00 0.00 0.00 93 1008.2
20260506123704 23 189 0.0 0.0 0.00 0.00 0.00 93 1008.1
20260506123204 23 189 0.0 0.0 0.00 0.00 0.00 93 1008.1
20260506121703 23 189 0.0 0.0 0.00 0.00 0.00 93 1008.0
20260506121203 23 189 0.0 0.0 0.00 0.00 0.00 93 1008.1
20260506120704 23 189 0.0 0.0 0.00 0.00 0.00 93 1008.0
20260506120203 23 189 0.0 0.0 0.00 0.00 0.00 93 1008.1
20260506115204 23 189 0.0 0.0 0.00 0.00 0.00 92 1008.1
20260506114704 23 189 0.0 0.0 0.00 0.00 0.00 92 1008.0
20260506114204 23 189 0.0 0.0 0.00 0.00 0.00 92 1007.9
20260506113704 23 189 0.0 0.0 0.00 0.00 0.00 92 1007.8
20260506113203 23 189 0.0 0.0 0.00 0.00 0.00 92 1007.9
20260506112703 23 189 0.0 0.0 0.00 0.00 0.00 92 1007.9
20260506112203 23 189 0.0 0.0 0.00 0.00 0.00 92 1007.8
20260506111704 23 189 0.0 0.0 0.00 0.00 0.00 92 1007.7
20260506111203 23 189 0.0 0.0 0.00 0.00 0.00 92 1007.8
20260506110704 23 189 0.0 0.0 0.00 0.00 0.00 92 1007.7
20260506110204 23 189 0.0 0.0 0.00 0.00 0.00 92 1007.7
20260506105704 23 189 0.0 0.0 0.00 0.00 0.00 92 1007.7
20260506105204 23 189 0.0 0.0 0.00 0.00 0.00 92 1007.5
20260506104704 23 189 0.0 0.0 0.00 0.00 0.00 92 1007.5
20260506104203 23 189 0.0 0.0 0.00 0.00 0.00 92 1007.4
20260506103703 23 189 0.0 0.0 0.00 0.00 0.00 92 1007.4
20260506103203 23 189 0.0 0.0 0.00 0.00 0.00 92 1007.4
20260506102703 23 189 0.0 1.6 0.00 0.00 0.00 92 1007.5
20260506102204 23 189 0.0 4.8 0.00 0.00 0.00 92 1007.4
20260506101704 23 200 0.0 0.0 0.00 0.00 0.00 92 1007.3
20260506101203 23 200 0.0 3.2 0.00 0.00 0.00 92 1007.2
20260506100703 23 194 0.0 0.0 0.00 0.00 0.00 92 1007.1
20260506100204 23 194 0.0 1.6 0.00 0.00 0.00 92 1007.0
20260506095703 23 192 0.0 4.8 0.00 0.00 0.00 92 1007.0
20260506094703 23 198 0.0 3.2 0.00 0.00 0.00 92 1006.9
20260506093703 23 181 0.0 4.8 0.00 0.00 0.00 92 1006.8
20260506093204 23 183 1.6 4.8 0.00 0.00 0.00 92 1006.6
20260506092204 23 181 0.0 1.6 0.00 0.00 0.00 92 1006.7
20260506091204 23 181 0.0 1.6 0.00 0.00 0.00 91 1006.7
20260506090704 23 181 0.0 1.6 0.00 0.00 0.00 91 1006.7
20260506090203 23 181 0.0 0.0 0.00 0.00 0.00 91 1006.8
20260506085204 23 184 0.0 0.0 0.00 0.00 0.00 91 1006.7
20260506084704 23 179 0.0 3.2 0.00 0.00 0.00 91 1006.6
20260506083704 23 170 0.0 4.8 0.00 0.00 0.00 91 1006.7
20260506083203 23 177 0.0 3.2 0.00 0.00 0.00 91 1006.7
20260506082704 23 176 0.0 1.6 0.00 0.00 0.00 91 1006.7
20260506082204 23 175 0.0 0.0 0.00 0.00 0.00 91 1006.8
20260506081703 23 158 0.0 0.0 0.00 0.00 0.00 91 1006.7
20260506081204 23 151 0.0 1.6 0.00 0.00 0.00 91 1006.7
20260506080703 23 173 0.0 0.0 0.00 0.00 0.00 91 1006.8
20260506080203 23 171 0.0 4.8 0.00 0.00 0.00 91 1006.9
20260506072704 23 204 0.0 1.6 0.00 0.00 0.00 92 1007.1
20260506072203 23 195 0.0 0.0 0.00 0.00 0.00 92 1007.2
20260506071703 23 195 0.0 0.0 0.00 0.00 0.00 92 1007.2
20260506071204 23 195 0.0 3.2 0.00 0.00 0.00 92 1007.3
20260506070704 23 195 0.0 4.8 0.00 0.00 0.00 92 1007.3
20260506062204 23 182 0.0 0.0 0.00 0.00 0.00 92 1007.2
20260506061704 23 182 0.0 0.0 0.00 0.00 0.00 92 1007.3
20260506061203 23 182 0.0 0.0 0.00 0.00 0.00 92 1007.3
20260506060703 23 184 0.0 0.0 0.00 0.00 0.00 92 1007.3
20260506060204 23 184 0.0 0.0 0.00 0.00 0.00 92 1007.5
20260506050703 23 187 0.0 3.2 0.00 0.00 0.00 90 1007.4
20260506050203 24 187 0.0 1.6 0.00 0.00 0.00 90 1007.4
20260506044203 24 171 0.0 0.0 0.00 0.00 0.00 90 1007.4
20260506043703 24 187 0.0 0.0 0.00 0.00 0.00 90 1007.5
20260506043204 24 187 0.0 0.0 0.00 0.00 0.00 90 1007.5
20260506042703 24 187 0.0 0.0 0.00 0.00 0.00 90 1007.4
20260506042203 24 187 0.0 0.0 0.00 0.00 0.00 90 1007.3
20260506041704 24 187 0.0 1.6 0.00 0.00 0.00 89 1007.2
20260506041204 24 187 0.0 3.2 0.00 0.00 0.00 89 1007.2
20260506040204 24 167 0.0 0.0 0.00 0.00 0.00 89 1007.2
20260506035704 24 167 0.0 0.0 0.00 0.00 0.00 89 1007.2
20260506035204 24 170 0.0 1.6 0.00 0.00 0.00 89 1007.1
20260506034204 24 174 0.0 0.0 0.00 0.00 0.00 89 1006.8
20260506033703 24 166 0.0 0.0 0.00 0.00 0.00 89 1006.8
20260506033204 24 166 0.0 0.0 0.00 0.00 0.00 88 1006.7
20260506032704 24 166 0.0 1.6 0.00 0.00 0.00 88 1006.6
20260506032203 24 166 0.0 0.0 0.00 0.00 0.00 88 1006.6
20260506031704 25 166 0.0 0.0 0.00 0.00 0.00 88 1006.5
20260506031203 25 166 0.0 0.0 0.00 0.00 0.00 87 1006.5
20260506030703 25 166 0.0 0.0 0.00 0.00 0.00 87 1006.4
20260506030204 25 166 0.0 0.0 0.00 0.00 0.00 87 1006.3
20260506025704 25 166 0.0 0.0 0.00 0.00 0.00 86 1006.1
20260506024704 25 166 0.0 0.0 0.00 0.00 0.00 86 1006.0
20260506024204 25 166 0.0 0.0 0.00 0.00 0.00 86 1006.0
20260506023703 25 166 0.0 0.0 0.00 0.00 0.00 86 1006.0
20260506023203 25 151 0.0 0.0 0.00 0.00 0.00 86 1006.0
20260506022703 25 151 0.0 0.0 0.00 0.00 0.00 86 1005.9
20260506022203 25 181 0.0 1.6 0.00 0.00 0.00 85 1005.8
20260506021703 25 188 0.0 0.0 0.00 0.00 0.00 85 1005.7
20260506021204 25 188 0.0 0.0 0.00 0.00 0.00 85 1005.5
20260506020704 25 188 0.0 0.0 0.00 0.00 0.00 85 1005.5
20260506020203 25 188 0.0 0.0 0.00 0.00 0.00 84 1005.5
20260506015703 26 188 0.0 1.6 0.00 0.00 0.00 84 1005.5
20260506015203 26 188 0.0 1.6 0.00 0.00 0.00 84 1005.5
20260506014704 26 188 0.0 0.0 0.00 0.00 0.00 84 1005.5
20260506014203 26 188 0.0 0.0 0.00 0.00 0.00 83 1005.5
20260506013703 26 188 0.0 0.0 0.00 0.00 0.00 83 1005.5
20260506013203 26 188 0.0 0.0 0.00 0.00 0.00 82 1005.5
20260506012703 26 188 0.0 0.0 0.00 0.00 0.00 82 1005.4
20260506012204 26 188 0.0 0.0 0.00 0.00 0.00 81 1005.4
20260506011204 27 188 0.0 0.0 0.00 0.00 0.00 80 1005.3
20260506010704 27 188 0.0 0.0 0.00 0.00 0.00 80 1005.3
20260506010203 27 188 0.0 0.0 0.00 0.00 0.00 80 1005.1
20260506005704 27 188 0.0 0.0 0.00 0.00 0.00 79 1005.0
20260506005203 27 188 0.0 0.0 0.00 0.00 0.00 79 1005.0
20260506004204 27 188 0.0 0.0 0.00 0.00 0.00 78 1004.8
20260506003204 27 188 0.0 0.0 0.00 0.00 0.00 76 1004.7
20260506002203 27 188 0.0 0.0 0.00 0.00 0.00 76 1004.6
20260506001704 28 188 0.0 0.0 0.00 0.00 0.00 76 1004.6
20260506001203 28 188 0.0 0.0 0.00 0.00 0.00 75 1004.5
20260506000204 28 188 0.0 0.0 0.00 0.00 0.00 74 1004.6
20260505235703 28 188 0.0 1.6 0.00 0.00 0.00 74 1004.5
20260505235203 28 213 0.0 0.0 0.00 0.00 0.00 73 1004.5
20260505234703 28 216 0.0 4.8 0.00 0.00 0.00 73 1004.4
20260505234203 28 174 0.0 4.8 0.00 0.00 0.00 74 1004.4
20260505233704 28 187 0.0 3.2 0.00 0.00 0.00 73 1004.4
20260505233203 28 187 0.0 3.2 0.00 0.00 0.00 73 1004.4
20260505232703 28 187 0.0 0.0 0.00 0.00 0.00 73 1004.3
20260505232204 28 187 0.0 0.0 0.00 0.00 0.00 73 1004.5
20260505231704 28 187 0.0 0.0 0.00 0.00 0.00 73 1004.4
20260505230203 28 165 0.0 3.2 0.00 0.00 0.00 73 1004.3
20260505225704 28 155 0.0 3.2 0.00 0.00 0.00 73 1004.2
20260505225203 28 154 0.0 0.0 0.00 0.00 0.00 74 1004.4
20260505224704 28 160 0.0 0.0 0.00 0.00 0.00 74 1004.5
20260505224203 28 166 0.0 0.0 0.00 0.00 0.00 73 1004.5
20260505223204 28 177 0.0 0.0 0.00 0.00 0.00 74 1004.3
20260505222704 28 199 0.0 0.0 0.00 0.00 0.00 73 1004.4
20260505222203 28 184 0.0 0.0 0.00 0.00 0.00 73 1004.5
20260505221704 28 186 0.0 0.0 0.00 0.00 0.00 73 1004.5
20260505221204 28 185 0.0 0.0 0.00 0.00 0.00 73 1004.5
20260505220704 28 182 0.0 0.0 0.00 0.00 0.00 73 1004.6
20260505220204 28 150 0.0 0.0 0.00 0.00 0.00 73 1004.7
20260505215704 28 189 0.0 0.0 0.00 0.00 0.00 73 1004.9